DW6214 Weather Reports


time (UTC)temp
C
wind
direction
speed
KPH
gust
KPH
rain 1hr
cm
rain 24hr
cm
rain mn
cm
humidity
%
barometer
mb
20260508013027 13 165 3.2 11.3 0.00 0.00 0.00 54 1019.0
20260508012020 13 173 1.6 12.9 0.00 0.00 0.00 52 1019.1
20260508011046 13 119 4.8 12.9 0.00 0.00 0.00 59 1019.3
20260508010054 13 133 6.4 11.3 0.00 0.00 0.00 58 1019.5
20260508005013 11 110 4.8 9.7 0.00 0.00 0.00 66 1019.5
20260508004018 11 59 3.2 4.8 0.00 0.00 0.00 69 1019.9
20260508003027 11 105 3.2 9.7 0.00 0.00 0.00 67 1019.8
20260508002036 12 163 3.2 11.3 0.00 0.00 0.00 68 1019.7
20260508001024 12 118 4.8 12.9 0.00 0.00 0.00 65 1019.7
20260508000032 12 118 3.2 12.9 0.00 0.00 0.00 67 1019.7
20260507235027 12 136 3.2 6.4 0.00 0.00 0.00 70 1020.1
20260507234015 12 119 4.8 11.3 0.00 0.00 0.00 70 1020.4
20260507233024 12 130 6.4 8.0 0.00 0.00 0.00 70 1020.5
20260507232013 12 106 3.2 11.3 0.00 0.00 0.00 70 1020.6
20260507231043 11 119 6.4 11.3 0.00 0.00 0.00 75 1020.7
20260507230031 11 36 1.6 4.8 0.00 0.00 0.00 76 1020.7
20260507225028 11 30 0.0 4.8 0.00 0.00 0.00 75 1020.9
20260507224015 11 159 1.6 8.0 0.00 0.00 0.00 76 1021.2
20260507223025 11 74 0.0 3.2 0.00 0.00 0.00 76 1021.3
20260507222014 11 73 1.6 6.4 0.00 0.00 0.00 76 1021.5
20260507221022 12 112 3.2 6.4 0.00 0.00 0.00 76 1021.3
20260507220031 11 113 0.0 3.2 0.00 0.00 0.00 77 1021.3
20260507215024 13 98 0.0 4.8 0.00 0.00 0.00 71 1021.3
20260507214017 12 117 1.6 8.0 0.00 0.00 0.00 75 1021.3
20260507213040 12 128 3.2 6.4 0.00 0.00 0.00 78 1021.5
20260507212038 11 106 3.2 6.4 0.00 0.00 0.00 78 1021.8
20260507211026 11 136 0.0 4.8 0.00 0.00 0.00 78 1021.6
20260507210032 11 117 1.6 3.2 0.00 0.00 0.00 77 1021.8
20260507205022 11 137 4.8 6.4 0.00 0.00 0.00 77 1021.9
20260507204018 12 120 0.0 0.0 0.00 0.00 0.00 74 1022.1
20260507203026 12 120 0.0 0.0 0.00 0.00 0.00 75 1022.2
20260507202034 12 120 0.0 0.0 0.00 0.00 0.00 75 1022.4
20260507201022 12 120 0.0 0.0 0.00 0.00 0.00 76 1022.2
20260507200031 12 120 0.0 0.0 0.00 0.00 0.00 76 1022.1
20260507195028 12 120 0.0 0.0 0.00 0.00 0.00 77 1022.0
20260507193026 12 119 1.6 3.2 0.00 0.00 0.00 76 1022.0
20260507192014 12 119 0.0 0.0 0.00 0.00 0.00 76 1022.2
20260507191043 12 119 0.0 4.8 0.00 0.00 0.00 74 1021.8
20260507190031 12 119 0.0 1.6 0.00 0.00 0.00 76 1021.7
20260507185018 12 119 0.0 3.2 0.00 0.00 0.00 74 1021.3
20260507184020 12 119 0.0 4.8 0.00 0.00 0.00 75 1021.0
20260507183027 12 119 0.0 1.6 0.00 0.00 0.00 75 1021.0
20260507182015 12 119 0.0 0.0 0.00 0.00 0.00 73 1020.8
20260507181042 13 119 0.0 3.2 0.00 0.00 0.00 73 1020.7
20260507180032 12 63 1.6 4.8 0.00 0.00 0.00 74 1020.6
20260507175017 13 326 0.0 0.0 0.00 0.00 0.00 72 1020.4
20260507174021 13 326 0.0 0.0 0.00 0.00 0.00 71 1020.8
20260507173049 15 326 0.0 0.0 0.00 0.00 0.00 68 1020.7
20260507172016 14 326 0.0 0.0 0.00 0.00 0.00 68 1020.6
20260507171023 15 326 0.0 1.6 0.00 0.00 0.00 67 1020.6
20260507170032 15 326 0.0 3.2 0.00 0.00 0.00 66 1020.7
20260507165028 16 326 0.0 1.6 0.00 0.00 0.00 67 1020.8
20260507164013 16 326 0.0 1.6 0.00 0.00 0.00 66 1020.7
20260507163019 16 326 0.0 3.2 0.00 0.00 0.00 64 1020.7
20260507162026 17 326 1.6 3.2 0.00 0.00 0.00 57 1020.7
20260507161026 17 326 0.0 3.2 0.00 0.00 0.00 56 1020.5
20260507160035 17 326 1.6 3.2 0.00 0.00 0.00 55 1020.5
20260507155044 17 326 1.6 3.2 0.00 0.00 0.00 57 1020.7
20260507154029 17 325 1.6 8.0 0.00 0.00 0.00 56 1020.8
20260507153016 17 332 4.8 9.7 0.00 0.00 0.00 56 1021.1
20260507152023 17 325 1.6 8.0 0.00 0.00 0.00 57 1020.8
20260507151028 17 327 3.2 8.0 0.00 0.00 0.00 56 1021.0
20260507150032 17 331 6.4 14.5 0.00 0.00 0.00 56 1021.0
20260507145025 17 323 8.0 17.7 0.00 0.00 0.00 55 1021.1
20260507144052 17 341 11.3 22.5 0.00 0.00 0.00 55 1021.2
20260507143015 17 329 11.3 19.3 0.00 0.00 0.00 54 1021.0
20260507142015 18 319 8.0 16.1 0.00 0.00 0.00 53 1020.9
20260507141045 18 334 8.0 12.9 0.00 0.00 0.00 52 1020.8
20260507140031 18 336 9.7 14.5 0.00 0.00 0.00 51 1020.8
20260507135019 18 317 6.4 16.1 0.00 0.00 0.00 52 1020.7
20260507134028 18 360 11.3 22.5 0.00 0.00 0.00 51 1021.1
20260507133015 18 322 16.1 24.1 0.00 0.00 0.00 52 1021.0
20260507132017 19 331 16.1 20.9 0.00 0.00 0.00 52 1020.7
20260507131044 19 323 6.4 14.5 0.00 0.00 0.00 54 1020.6
20260507130031 20 270 8.0 12.9 0.00 0.00 0.00 53 1020.4
20260507125052 20 330 8.0 16.1 0.00 0.00 0.00 53 1020.4
20260507124017 20 344 9.7 16.1 0.00 0.00 0.00 50 1020.7
20260507123027 21 303 4.8 16.1 0.00 0.00 0.00 52 1020.6
20260507122016 20 331 12.9 19.3 0.00 0.00 0.00 51 1020.7
20260507121022 19 344 12.9 20.9 0.00 0.00 0.00 53 1021.0
20260507120032 20 335 11.3 22.5 0.00 0.00 0.00 52 1021.1
20260507115027 20 325 16.1 22.5 0.00 0.00 0.00 54 1021.1
20260507114017 18 326 12.9 22.5 0.00 0.00 0.00 56 1021.3
20260507113026 18 324 14.5 22.5 0.00 0.00 0.00 55 1021.2
20260507112016 19 331 16.1 19.3 0.00 0.00 0.00 55 1021.3
20260507111024 18 306 4.8 14.5 0.00 0.00 0.00 57 1021.0
20260507110032 18 325 11.3 19.3 0.00 0.00 0.00 56 1021.1
20260507105019 18 339 4.8 9.7 0.00 0.00 0.00 54 1021.0
20260507104019 19 350 6.4 14.5 0.00 0.00 0.00 54 1021.0
20260507103027 19 340 4.8 14.5 0.00 0.00 0.00 50 1021.2
20260507102016 19 327 6.4 16.1 0.00 0.00 0.00 53 1021.4
20260507101025 20 342 4.8 12.9 0.00 0.00 0.00 53 1021.2
20260507100032 19 309 4.8 17.7 0.00 0.00 0.00 51 1021.3
20260507095025 19 321 9.7 17.7 0.00 0.00 0.00 52 1021.2
20260507094013 19 313 4.8 14.5 0.00 0.00 0.00 51 1021.2
20260507093040 18 323 6.4 17.7 0.00 0.00 0.00 53 1021.2
20260507092027 18 312 8.0 14.5 0.00 0.00 0.00 52 1021.3
20260507091033 18 325 9.7 14.5 0.00 0.00 0.00 52 1021.0
20260507090033 18 346 6.4 14.5 0.00 0.00 0.00 52 1021.1
20260507085027 18 343 8.0 16.1 0.00 0.00 0.00 51 1021.0
20260507084013 19 315 8.0 14.5 0.00 0.00 0.00 50 1021.1
20260507083020 18 330 8.0 16.1 0.00 0.00 0.00 51 1021.1
20260507082038 18 295 6.4 17.7 0.00 0.00 0.00 49 1021.1
20260507081026 19 263 9.7 12.9 0.00 0.00 0.00 44 1021.1
20260507080032 19 346 8.0 14.5 0.00 0.00 0.00 44 1021.0
20260507075017 18 318 4.8 12.9 0.00 0.00 0.00 43 1020.7
20260507074026 19 331 3.2 6.4 0.00 0.00 0.00 43 1020.5
20260507073015 18 331 4.8 6.4 0.00 0.00 0.00 46 1020.9
20260507072019 18 17 1.6 4.8 0.00 0.00 0.00 45 1020.9
20260507071028 17 17 0.0 3.2 0.00 0.00 0.00 49 1020.8
20260507070032 17 17 0.0 0.0 0.00 0.00 0.00 62 1020.7
20260507065018 15 17 0.0 0.0 0.00 0.00 0.00 63 1021.0
20260507064026 14 17 0.0 0.0 0.00 0.00 0.00 67 1021.0
20260507063015 13 17 0.0 0.0 0.00 0.00 0.00 62 1021.0
20260507062019 13 17 0.0 0.0 0.00 0.00 0.00 64 1021.0
20260507061022 12 17 0.0 0.0 0.00 0.00 0.00 64 1021.0
20260507060031 12 17 0.0 0.0 0.00 0.00 0.00 68 1021.0
20260507055028 11 17 0.0 0.0 0.00 0.00 0.00 70 1021.0
20260507054016 11 17 0.0 0.0 0.00 0.00 0.00 69 1021.0
20260507053026 10 17 0.0 0.0 0.00 0.00 0.00 66 1021.0
20260507052012 10 17 0.0 0.0 0.00 0.00 0.00 72 1020.7
20260507051042 8 17 0.0 0.0 0.00 0.00 0.00 75 1020.6
20260507050032 9 17 0.0 0.0 0.00 0.00 0.00 73 1020.5
20260507045013 8 17 0.0 0.0 0.00 0.00 0.00 77 1020.3
20260507044019 7 17 0.0 0.0 0.00 0.00 0.00 77 1020.3
20260507043028 7 17 0.0 0.0 0.00 0.00 0.00 77 1020.1
20260507042016 7 17 0.0 0.0 0.00 0.00 0.00 78 1020.0
20260507041022 6 17 0.0 0.0 0.00 0.00 0.00 79 1019.9
20260507040031 7 17 0.0 0.0 0.00 0.00 0.00 78 1019.8
20260507035013 7 17 0.0 0.0 0.00 0.00 0.00 78 1019.8
20260507034019 7 17 1.6 3.2 0.00 0.00 0.00 78 1019.8
20260507033029 6 17 0.0 0.0 0.00 0.00 0.00 78 1019.8
20260507032037 7 17 0.0 0.0 0.00 0.00 0.00 77 1020.0
20260507031026 7 17 0.0 1.6 0.00 0.00 0.00 75 1019.9
20260507030032 7 17 0.0 0.0 0.00 0.00 0.00 77 1019.9
20260507025027 6 15 0.0 3.2 0.00 0.00 0.00 78 1020.0
20260507024016 7 14 3.2 9.7 0.00 0.00 0.00 75 1020.0
20260507023046 7 142 1.6 4.8 0.00 0.00 0.00 77 1019.9
20260507022013 6 60 1.6 3.2 0.00 0.00 0.00 78 1020.2
20260507021022 6 60 1.6 3.2 0.00 0.00 0.00 78 1020.1
20260507020031 6 60 1.6 4.8 0.00 0.00 0.00 78 1020.2
20260507015028 6 59 3.2 4.8 0.00 0.00 0.00 78 1020.3
20260507014038 7 54 1.6 4.8 0.00 0.00 0.00 75 1020.3